Darlington, SC

11:53 AM EDT on August 19, 2017 (GMT -0400)
Darlington County Jetport

Weather History for KUDG - November, 2012

Change the Weather History Date:

Tuesday, November 13, 2012

  Actual Average (KFLO) Record (KFLO)
Temperature  
Mean Temperature 57 °F -  
Max Temperature 66 °F 65 °F 84 °F (1955)
Min Temperature 48 °F 40 °F 25 °F (2013)
Degree Days  
Heating Degree Days 8    
Growing Degree Days 7 (Base 50)    
Moisture  
Dew Point 50 °F    
Average Humidity 86    
Maximum Humidity 94    
Minimum Humidity 77    
Precipitation  
Precipitation 0.07 in - - ()
Sea Level Pressure  
Sea Level Pressure 30.28 in    
Wind  
Wind Speed 7 mph (North)    
Max Wind Speed 16 mph    
Max Gust Speed 22 mph    
Visibility 9 miles    
Events      
Averages and records for this station are not official NWS values.
T = Trace of Precipitation, MM = Missing Value Source: NWS Daily Summary

Daily Weather History Graph

Daily Weather History Graph

Search for Another Location

Airport or City:

Trip Planner

Search our weather history database for the weather conditions in past years. The results will help you decide how hot, cold, wet, or windy it might be!

Date:

Astronomy

Nov. 13, 2012 Rise Set
Actual Time 6:51 AM EST 5:15 PM EST
Civil Twilight 6:24 AM EST 5:42 PM EST
Nautical Twilight 5:54 AM EST 6:12 PM EST
Astronomical Twilight 5:24 AM EST 6:42 PM EST
Moon 6:27 AM EST (11/13) 5:08 PM EST (11/13)
Length of Visible Light 11h 17m
Length of Day
10h 24m
Waning Crescent, 0% of the Moon is Illuminated
Nov 13
Waning Crescent
Nov 13
New
Nov 20
First Quarter
Nov 28
Full
Dec 6
Last Quarter

Hourly Weather History & Observations

Time (EST) Temp. Dew Point Humidity Pressure Visibility Wind Dir Wind Speed Gust Speed Precip Events Conditions
12:15 AM 66.2 °F 60.8 °F 83% 30.19 in 10.0 mi SSW 4.6 mph - N/A   Clear
12:35 AM 64.4 °F 59.0 °F 83% 30.19 in 10.0 mi WSW 4.6 mph - N/A   Clear
12:55 AM 64.4 °F 59.0 °F 83% 30.19 in 10.0 mi Calm Calm - N/A   Clear
1:15 AM 64.4 °F 59.0 °F 83% 30.19 in 10.0 mi West 3.5 mph - N/A   Clear
1:35 AM 62.6 °F 57.2 °F 82% 30.18 in 10.0 mi South 5.8 mph - N/A   Clear
1:55 AM 62.6 °F 59.0 °F 88% 30.19 in 10.0 mi South 5.8 mph - N/A   Clear
2:15 AM 64.4 °F 59.0 °F 83% 30.19 in 10.0 mi SSW 4.6 mph - N/A   Clear
2:35 AM 64.4 °F 57.2 °F 77% 30.18 in 10.0 mi SW 3.5 mph - N/A   Partly Cloudy
2:55 AM 62.6 °F 57.2 °F 82% 30.19 in 10.0 mi WSW 3.5 mph - N/A   Mostly Cloudy
3:15 AM 62.6 °F 57.2 °F 82% 30.18 in 10.0 mi South 3.5 mph - N/A   Mostly Cloudy
3:35 AM 62.6 °F 59.0 °F 88% 30.18 in 10.0 mi South 4.6 mph - N/A   Scattered Clouds
3:55 AM 62.6 °F 59.0 °F 88% 30.18 in 10.0 mi Calm Calm - N/A   Clear
4:15 AM 62.6 °F 57.2 °F 82% 30.18 in 10.0 mi SSW 4.6 mph - N/A   Clear
4:35 AM 62.6 °F 59.0 °F 88% 30.19 in 10.0 mi SSW 4.6 mph - N/A   Mostly Cloudy
4:55 AM 62.6 °F 59.0 °F 88% 30.19 in 10.0 mi SSW 3.5 mph - N/A   Mostly Cloudy
5:15 AM 62.6 °F 59.0 °F 88% 30.19 in 10.0 mi SSW 4.6 mph - N/A   Partly Cloudy
5:35 AM 62.6 °F 57.2 °F 82% 30.19 in 10.0 mi Calm Calm - N/A   Scattered Clouds
5:55 AM 60.8 °F 57.2 °F 88% 30.20 in 8.0 mi Calm Calm - N/A   Mostly Cloudy
6:15 AM 60.8 °F 57.2 °F 88% 30.20 in 7.0 mi Calm Calm - N/A   Mostly Cloudy
6:35 AM 60.8 °F 57.2 °F 88% 30.20 in 5.0 mi Calm Calm - N/A   Overcast
6:55 AM 62.6 °F 57.2 °F 82% 30.21 in 5.0 mi Calm Calm - N/A   Overcast
7:15 AM 59.0 °F 51.8 °F 77% 30.24 in 10.0 mi North 16.1 mph 20.7 mph N/A   Overcast
7:35 AM 57.2 °F 50.0 °F 77% 30.24 in 10.0 mi NNW 11.5 mph - N/A   Overcast
7:55 AM 55.4 °F 50.0 °F 82% 30.25 in 10.0 mi North 11.5 mph 17.3 mph N/A   Overcast
8:15 AM 55.4 °F 50.0 °F 82% 30.27 in 7.0 mi NNW 9.2 mph - N/A   Overcast
8:35 AM 53.6 °F 48.2 °F 82% 30.27 in 7.0 mi NNW 10.4 mph - N/A   Overcast
8:55 AM 53.6 °F 51.8 °F 94% 30.28 in 3.0 mi North 6.9 mph - 0.01 in   Overcast
9:15 AM 55.4 °F 51.8 °F 88% 30.28 in 10.0 mi North 9.2 mph - 0.01 in   Overcast
9:35 AM 53.6 °F 50.0 °F 88% 30.29 in 8.0 mi NNW 11.5 mph - 0.01 in   Overcast
9:55 AM 53.6 °F 51.8 °F 94% 30.30 in 10.0 mi North 11.5 mph 17.3 mph 0.01 in   Overcast
10:15 AM 53.6 °F 50.0 °F 88% 30.31 in 10.0 mi North 12.7 mph 19.6 mph 0.01 in   Overcast
10:35 AM 51.8 °F 48.2 °F 88% 30.32 in 8.0 mi North 13.8 mph 21.9 mph 0.02 in   Overcast
10:55 AM 51.8 °F 46.4 °F 82% 30.32 in 3.0 mi NNE 12.7 mph 20.7 mph 0.03 in   Overcast
11:15 AM 50.0 °F 46.4 °F 87% 30.32 in 4.0 mi North 10.4 mph - N/A   Overcast
11:35 AM 50.0 °F 46.4 °F 87% 30.32 in 4.0 mi North 11.5 mph 16.1 mph 0.01 in   Overcast
11:55 AM 48.2 °F 46.4 °F 93% 30.31 in 10.0 mi North 10.4 mph 17.3 mph 0.01 in   Overcast
12:15 PM 50.0 °F 48.2 °F 94% 30.31 in 7.0 mi North 10.4 mph - N/A   Overcast
12:35 PM 50.0 °F 48.2 °F 94% 30.30 in 10.0 mi NNE 10.4 mph 17.3 mph 0.01 in   Overcast
12:55 PM 50.0 °F 46.4 °F 87% 30.30 in 5.0 mi North 13.8 mph 20.7 mph 0.01 in   Overcast
1:15 PM 50.0 °F 46.4 °F 87% 30.29 in 10.0 mi North 13.8 mph 17.3 mph N/A   Overcast
1:35 PM 50.0 °F 46.4 °F 87% 30.29 in 10.0 mi NNE 10.4 mph 17.3 mph N/A   Overcast
1:55 PM 51.8 °F 46.4 °F 82% 30.28 in 10.0 mi North 8.1 mph - N/A   Overcast
2:15 PM 50.0 °F 46.4 °F 87% 30.28 in 10.0 mi North 12.7 mph - N/A   Overcast
2:35 PM 50.0 °F 46.4 °F 87% 30.28 in 10.0 mi NNE 10.4 mph - N/A   Overcast
2:55 PM 50.0 °F 46.4 °F 87% 30.28 in 10.0 mi North 9.2 mph - N/A   Overcast
3:15 PM 50.0 °F 46.4 °F 87% 30.28 in 10.0 mi North 10.4 mph - N/A   Overcast
3:35 PM 50.0 °F 46.4 °F 87% 30.28 in 10.0 mi North 10.4 mph - N/A   Overcast
3:55 PM 48.2 °F 46.4 °F 93% 30.29 in 10.0 mi NNE 10.4 mph - N/A   Overcast
4:15 PM 50.0 °F 46.4 °F 87% 30.30 in 10.0 mi North 8.1 mph - N/A   Overcast
4:35 PM 50.0 °F 46.4 °F 87% 30.29 in 10.0 mi North 10.4 mph - N/A   Overcast
4:55 PM 50.0 °F 46.4 °F 87% 30.30 in 10.0 mi North 9.2 mph - N/A   Overcast
5:15 PM 50.0 °F 46.4 °F 87% 30.30 in 10.0 mi North 8.1 mph - N/A   Overcast
5:35 PM 50.0 °F 46.4 °F 87% 30.31 in 10.0 mi North 9.2 mph - N/A   Overcast
5:55 PM 50.0 °F 46.4 °F 87% 30.32 in 10.0 mi North 8.1 mph - N/A   Overcast
6:15 PM 50.0 °F 46.4 °F 87% 30.32 in 10.0 mi North 9.2 mph - N/A   Overcast
6:35 PM 51.8 °F 46.4 °F 82% 30.32 in 10.0 mi North 6.9 mph - N/A   Overcast
6:55 PM 50.0 °F 46.4 °F 87% 30.33 in 10.0 mi North 9.2 mph - N/A   Overcast
7:15 PM 50.0 °F 46.4 °F 87% 30.34 in 10.0 mi NNE 9.2 mph 16.1 mph N/A   Overcast
7:35 PM 50.0 °F 46.4 °F 87% 30.35 in 10.0 mi NNE 12.7 mph 17.3 mph N/A   Overcast
7:55 PM 48.2 °F 46.4 °F 93% 30.35 in 6.0 mi NNE 8.1 mph 17.3 mph N/A   Overcast
8:15 PM 50.0 °F 46.4 °F 87% 30.35 in 4.0 mi NNE 9.2 mph - N/A   Overcast
8:35 PM 48.2 °F 46.4 °F 93% 30.35 in 4.0 mi NNE 10.4 mph - N/A   Overcast
8:55 PM 48.2 °F 46.4 °F 93% 30.36 in 5.0 mi NNE 8.1 mph 16.1 mph N/A   Overcast
9:15 PM 48.2 °F 46.4 °F 93% 30.37 in 7.0 mi NNE 8.1 mph - N/A   Overcast
9:35 PM 50.0 °F 46.4 °F 87% 30.37 in 8.0 mi NNE 10.4 mph - N/A   Overcast
9:55 PM 50.0 °F 46.4 °F 87% 30.37 in 6.0 mi NE 9.2 mph 17.3 mph N/A   Overcast
10:15 PM 51.8 °F 46.4 °F 82% 30.38 in 10.0 mi NE 5.8 mph 17.3 mph N/A   Overcast
10:35 PM 48.2 °F 46.4 °F 93% 30.38 in 9.0 mi NNE 6.9 mph - N/A   Overcast
10:55 PM 48.2 °F 44.6 °F 87% 30.38 in 10.0 mi NNE 8.1 mph - N/A   Overcast
11:15 PM 48.2 °F 44.6 °F 87% 30.38 in 10.0 mi NNE 10.4 mph 16.1 mph N/A   Overcast
11:35 PM 48.2 °F 42.8 °F 82% 30.38 in 10.0 mi NNE 8.1 mph - N/A   Overcast
11:55 PM 48.2 °F 42.8 °F 82% 30.38 in 10.0 mi NE 9.2 mph - N/A   Overcast